Regional Weather Roundup
Issued by NWS Burlington, VT

Home | Current Version | Previous Version | Text Only | Print | Product List | Glossary On
Versions: 1 2 3 4 5 6 7 8 9 10 11 12 13 14 15 16 17 18 19 20 21 22 23 24 25 26 27 28 29 30 31 32 33 34 35 36 37 38 39 40 41 42 43 44 45 46 47 48 49 50
000
ASUS41 KBTV 210930
RWRBTV
VERMONT REGIONAL WEATHER ROUNDUP
NATIONAL WEATHER SERVICE BURLINGTON VT
500 AM EDT MON AUG 21 2017

NOTE: "FAIR" INDICATES FEW OR NO CLOUDS BELOW 12,000 FEET WITH NO
SIGNIFICANT WEATHER AND/OR OBSTRUCTIONS TO VISIBILITY.

* THESE REPORTS ARE NOT UNDER NWS QUALITY CONTROL AND/OR DO NOT
  REPORT WEATHER SUCH AS PRECIPITATION AND FOG.

VTZ001>019-211000-
_____VERMONT_____


CITY           SKY/WX    TMP DP  RH WIND       PRES   REMARKS
BURLINGTON     CLEAR     62  59  90 E5        30.12R
MONTPELIER     PTCLDY    53  53 100 CALM      30.19R FOG
MORRISVILLE    MOCLDY    54  53  97 CALM      30.16R
ST. JOHNSBURY*   N/A     56  56 100 MISG      30.14R
LYNDONVILLE*   FOG       52  52  99 CALM      30.18R VSB<1/4
MIDDLEBURY*    FAIR      61  57  86 S3        30.14S
RUTLAND*       CLEAR     56  54  93 SE8       30.18R
SPRINGFIELD    FOG       54  53  97 CALM      30.17S VSB 1/4
HIGHGATE*      FAIR      65  59  82 S5        30.10S
NEWPORT*       FAIR      58  56  95 CALM      30.14R
BENNINGTON     CLEAR     56  54  93 CALM      30.18S FOG
ISLAND POND*     N/A     50 N/A N/A CALM        N/A
GALLUP MILLS*    N/A     48 N/A N/A MISG        N/A
UNION VILLAGE*   N/A     54 N/A N/A MISG        N/A
MT. MANSFIELD*   N/A     57 N/A N/A W26         N/A

_____LAKE CHAMPLAIN_____


CITY           SKY/WX    TMP DP  RH WIND       PRES   REMARKS
BURTON ISLAND*   N/A     68  61  77 S10         N/A
COLCHESTER RF*   N/A     68  64  88 S17         N/A
DIAMOND ISL*     N/A     64  61  88 S5          N/A

$$

NYZ007-026>031-035-052-083-087-211000-
_____NORTHERN NEW YORK_____


CITY           SKY/WX    TMP DP  RH WIND       PRES   REMARKS
PLATTSBURGH    CLEAR     60  58  92 CALM      30.10S
SARANAC LAKE   CLOUDY    51  51 100 SW3       30.16R FOG
MASSENA        PTCLDY    64  63  96 SW5       30.10R
OGDENSBURG*    FAIR      63  62  96 S3        30.10S
POTSDAM*       CLEAR     64  64 100 SW5       30.11S
STARK FALLS*     N/A     66 N/A N/A S6          N/A
WATERTOWN      PTCLDY    65  62  90 S5        30.12S
FT DRUM        PTCLDY    65  59  80 S8        30.12S
ALBANY         PTCLDY    61  58  90 CALM      30.17R
GLENS FALLS    PTCLDY    55  54  96 CALM      30.16R FOG

$$
NHZ002-005-011-211000-
_____NEW HAMPSHIRE_____


CITY           SKY/WX    TMP DP  RH WIND       PRES   REMARKS
LEBANON        FOG       57  56  96 CALM      30.15S VSB 1/4
KEENE            N/A    N/A N/A N/A MISG        N/A
MT WASHINGTON  FOG       48  48 100 NW46G52     N/A  VSB 1/8
PLYMOUTH       FOG       54  53  97 CALM      30.16R VSB 1/4
WHITEFIELD     CLEAR     50  46  86 CALM      30.16R

$$

_____REGIONAL QUEBEC LOCATIONS_____


CITY           SKY/WX    TMP DP  RH WIND       PRES   REMARKS
MONTREAL       CLEAR     66  63  88 W9        30.07R
QUEBEC CITY    PTCLDY    59  57  94 SW5       30.02S
SHERBROOKE     PTCLDY    55  55 100 E3        30.10S FOG

_____REGIONAL ONTARIO LOCATIONS_____


CITY           SKY/WX    TMP DP  RH WIND       PRES   REMARKS
OTTAWA         MOCLDY    63  63 100 S7        30.08S

______KEY______
VSB  - VISIBILITY IN MILES
WCI  - WIND CHILL INDEX
HX   - HEAT INDEX
$$
NNNN




USA.gov is the U.S. government's official web portal to all federal, state and local government web resources and services.